Terug naar catalogus

COSMOS 1430

ActiefNavigatieLEO
NORAD 13762·PAYLOAD·🇷🇺 Russia

Gelanceerd Jan 19, 1983 vanaf Plesetsk Cosmodrome

Loading…

Volgende Passages (komende 24 uur)

TLE

VersSource: Space-Track

Epoch: Sep 14, 2026, 14:51 UTC

1 13762U 83002B   26257.61901031 -.00000017  00000-0 -11653-4 0  9995
2 13762  74.0271  19.5191 0020724 267.2166 104.0122 12.45726734985398

Volg COSMOS 1430 in realtime met AllMySat

Download on the App Store